CZ-2C DEB, 40289

Orbit data source: Space-Track

CZ-2C DEB, 40289 is space debris in SSO originally from a launch on Mon, 27 Oct 2014 UTC launched from the Jiuquan Satellite Launch Center, China (JSC). Debris objects in space refer to the collection of defunct objects orbiting the Earth. Examples of debris include non-operational satellites, rocket bodies, and fragments generated from explosions, collisions, or faulty payload assembly.

Loading next visibility...
Identifier
40289, 2014-066D
Orbit
SSO
Country
Flag of CNCN / PRC
Related business
Manufacturer
CALT
Mission
Spacecraft
Bus & Motor
Unknown
Mass
1 kg wet, 1 kg dry
Launch date (UTC)
2014-10-27 (11 years ago)
Launch vehicle
Unknown
Launch site
Jiuquan Satellite Launch Center, China (JSC)
Object type
Payload
Rocket body
Debris
Shape & HBR
Cone, 0.1 m
Radar Cross Section
0.025 m², Small (<0.1 m²)

Expand to show TLE details & history
Last TLE update: 18 hours ago

TLE from 18 hours ago
0 CZ-2C DEB
1 40289U 14066D   25306.21900556  .00009147  00000-0  13077-2 0  9995
2 40289  98.4928 207.3038 0072263 149.0485 211.5012 14.75092536584752
Epoch: 2025-11-02T05:15Z
TLE epoch observation values (Epoch: 2025-11-02T05:15:22.080Z)
Latitude
-0°
Longitude
86.72392°
Altitude
691.234 km
Speed
7.487 km/s
True Right ascension
13h 49m 12s
True Declination
0° 00' 00"
Sunlit
Object was in daylight at epoch
Visualization orbit readout
Latitude
Unknown
Longitude
Unknown
Altitude
Unknown
Speed
Unknown
Apparent Right ascension
Unknown
Apparent Declination
Unknown
Sunlit
N/A
Visualization observer readout
Local Sidereal Time
18:59:28
Azimuth
Unknown
Elevation
Unknown
Doppler factor
Unknown
Orbital elements
Apogee altitude
692.661 km
Perigee altitude
591.203 km
Semi-major axis
7,020.069 km
Eccentricity
0.00723
Inclination
98.4928°
RAAN
207.3038°
Arg. of periapsis
149.0485°
True anomaly
211.07183°
Mean anomaly
211.5012°
Eccentric anomaly
211.28619°
Mean motion
3.69004 °/min
Orbital period
97.56 mins
BSTAR
0.0013077
Loading maneuver chart data...
Computing Atmospheric mass density...
Loading historical data...
Loading historical data...
Loading historical data...
Loading historical data...
Loading historical data...
Loading historical data...
Loading historical data...
Other satellites on launch #66 in the year 2014 (2014-10-27 UTC)

Documentation

Showing up to 5 results
|